Regional Weather Roundup
Issued by NWS

Home | Current Version | Previous Version | Graphics & Text | Print | Product List | Glossary On
Versions: 1 2 3 4 5 6 7 8 9 10 11 12 13 14 15 16 17 18 19 20 21 22 23 24 25 26 27 28 29 30 31 32 33 34 35 36 37 38 39 40 41 42 43 44 45 46 47 48 49 50
000
ASUS45 KBOU 030307
RWRCO

WEATHER ROUNDUP FOR COLORADO
NATIONAL WEATHER SERVICE DENVER/BOULDER CO
900 PM MDT TUE SEP 02 2014

NOTE: "FAIR" INDICATES FEW OR NO CLOUDS BELOW 12000 FEET WITH NO
SIGNIFICANT WEATHER AND/OR OBSTRUCTIONS TO VISIBILITY.

COZ001>005-013-030-031-030400-
...NORTHWEST COLORADO...

CITY           SKY/WX    TMP DP  RH WIND       PRES   REMARKS
CRAIG          CLEAR     61  39  44 CALM      30.04R
HAYDEN         CLEAR     64  36  34 CALM      30.07S
MEEKER         CLEAR     62  41  46 NE5       30.06R
MOUNT WERNER   NOT AVBL
STEAMBOAT SPGS CLEAR     61  41  48 E3        30.10S
WALDEN         CLEAR     59  30  33 SW13      30.19F
$$

COZ006>008-011-030400-
...WEST CENTRAL VALLEYS...

CITY           SKY/WX    TMP DP  RH WIND       PRES   REMARKS
GRAND JUNCTION CLEAR     70  38  31 NE3       29.92S
MONTROSE       CLEAR     70  44  39 SE7       30.04R
EAGLE          CLEAR     66  36  32 NE8       30.11R
RIFLE          CLEAR     67  37  33 SE7       30.00R
DELTA          CLEAR     78  33  19 CALM      29.97R
NUCLA          CLEAR     75  30  19 S6        30.07R
$$

COZ017>023-064>068-030400-
...SOUTHWEST COLORADO...

CITY           SKY/WX    TMP DP  RH WIND       PRES   REMARKS
DURANGO        CLEAR     72  29  20 N3        30.12R
CORTEZ         CLEAR     65  40  39 NE8       30.05R
PAGOSA SPRINGS CLEAR     61  28  27 CALM      30.21R
TELLURIDE      CLEAR     63  30  29 CALM      30.32R
WOLF CREEK PAS CLEAR     52  27  37 SW17G26   30.54S
$$

COZ009-010-012-014-032>034-037-058>063-030400-
...CENTRAL COLORADO...

CITY           SKY/WX    TMP DP  RH WIND       PRES   REMARKS
ASPEN          MOCLDY    60  35  39 S8        30.20R
BUENA VISTA    PTCLDY    63  30  29 W12       30.20R
COPPER MTN     CLEAR     54  30  40 W13G18    30.53S
BERTHOUD PASS  FAIR      45  43  93 W15       30.57R
COTTONWOOD PAS PTCLDY    63  25  23 NW6       30.37S
GUNNISON       PTCLDY    63  34  34 E3        30.21R
KREMMLING      PTCLDY    61  27  27 CALM      30.17R
LEADVILLE      CLEAR     52  31  44 NE6       30.36R
MONARCH PASS   MOCLDY    52  28  40 W13       30.64R
SALIDA         PTCLDY    71  32  24 W12       30.23R
SUNLIGHT       CLEAR     54  32  43 CALM      30.44S
WILKERSON PASS NOT AVBL
$$

COZ069>075-030400-
...SAN LUIS VALLEY/SANGRE DE CRISTO MOUNTAINS...

CITY           SKY/WX    TMP DP  RH WIND       PRES   REMARKS
ALAMOSA        PTCLDY    62  35  36 NW8       30.17R
LA VETA PASS   NOT AVBL
SAGUACHE       MOCLDY    66  37  34 N10       30.21S
$$

COZ035-036-038>040-030400-
...NORTHERN COLORADO FRONT RANGE...

CITY           SKY/WX    TMP DP  RH WIND       PRES   REMARKS
DENVER INTL AP PTCLDY    72  53  51 S16       29.99R
DMNS CITY PARK   N/A     74  51  43 S7G13     29.98S
AURORA         PTCLDY    69  52  54 S9        30.02R
FRONT RANGE AP NOT AVBL
ERIE MUNI ARPT CLEAR     67  50  56 CALM      29.96S
BOULDER MUN AP CLEAR     70  50  49 SW3       29.97S
CENTENNIAL     PTCLDY    72  49  44 S14       30.02R
BROOMFIELD     PTCLDY    73  39  29 VRB3      30.01R
FORT COLLINS   CLEAR     73  43  33 CALM      29.96R
LONGMONT       CLEAR     67  51  55 SW7       29.97R
$$

COZ041-046-047-076>085-087-088-030400-
...PIKES PEAK/PALMER DIVIDE AND SOUTHERN FOOTHILLS...

CITY           SKY/WX    TMP DP  RH WIND       PRES   REMARKS
COLO. SPRINGS  PTCLDY    72  45  37 E12       30.09R
A. F. ACADEMY  CLEAR     67  47  49 S9        30.11R
ELLICOTT       NOT AVBL
FALCON         CLEAR     66  44  45 SE5       30.15R
FORT CARSON    CLEAR     69  47  45 NW2       30.06R
LIMON          PTCLDY    67  52  58 S12       30.04R
MONUMENT HILL  PTCLDY    61  45  55 S9        30.13S
TRINIDAD       CLEAR     77  50  38 SE13G23   30.03R
$$

COZ042>045-048>051-090-091-030400-
...NORTHEAST COLORADO...

CITY           SKY/WX    TMP DP  RH WIND       PRES   REMARKS
GREELEY ARPT   CLEAR     70  52  52 S6        29.94R
AKRON          CLEAR     73  52  47 S18G26    29.96R
BURLINGTON     CLEAR     70  59  68 S12       29.97S
WRAY             N/A     74  54  48 S13G20    29.91S
STERLING       CLEAR     68  57  68 S7        29.88S
HOLYOKE        CLEAR     72  59  64 S9        29.90S
FORT MORGAN    CLEAR     68  53  57 S6        29.94R
$$

COZ086-089-092>099-030400-
...SOUTHEAST COLORADO...

CITY           SKY/WX    TMP DP  RH WIND       PRES   REMARKS
PUEBLO         CLEAR     79  53  40 E9        29.93R
LA JUNTA       CLEAR     80  57  45 SE13      29.93R
LAMAR          CLEAR     77  60  55 SE14      29.92R
SPRINGFIELD      N/A     70  61  73 S9        30.01R
$$



USA.gov is the U.S. government's official web portal to all federal, state and local government web resources and services.